Weather History for Caribou, ME

Change the Weather History Date:

Sunday, September 2, 2012

  Actual Average Record
Temperature  
Mean Temperature 55 °F 60 °F  
Max Temperature 69 °F 71 °F 88 °F (1942)
Min Temperature 41 °F 49 °F 36 °F (1991)
Degree Days  
Heating Degree Days 10 6  
Month to date heating degree days 18 12  
Since 1 July heating degree days 54 166  
Cooling Degree Days 0 1  
Month to date cooling degree days 0 2  
Year to date cooling degree days 271 171  
Growing Degree Days 5 (Base 50)    
Moisture  
Dew Point 47 °F    
Average Humidity 72    
Maximum Humidity 96    
Minimum Humidity 48    
Precipitation  
Precipitation 0.00 in 0.10 in 1.18 in (2013)
Month to date precipitation 0.00 0.21  
Year to date precipitation 26.95 24.95  
Snow  
Snow 0.00 in 0.00 in 0.00 in (2002)
Month to date snowfall 0.0 0.0  
Since 1 July snowfall 0.0 0.0  
Since 1 September snowfall 0.0 0.0  
Snow Depth 0.00 in    
Sea Level Pressure  
Sea Level Pressure 30.13 in    
Wind  
Wind Speed 3 mph (SSE)    
Max Wind Speed 10 mph    
Max Gust Speed 14 mph    
Visibility 10 miles    
Events      
T = Trace of Precipitation, MM = Missing Value Source: NWS Daily Summary

Daily Weather History Graph

Daily Weather History Graph

Search for Another Location

Airport:

Trip Planner

Search our weather history database for the weather conditions in past years. The results will help you decide how hot, cold, wet, or windy it might be!

Date:

Astronomy

Sep. 02, 2012 Rise Set
Actual Time 5:53 AM EDT 7:08 PM EDT
Civil Twilight 5:22 AM EDT 7:39 PM EDT
Nautical Twilight 4:44 AM EDT 8:17 PM EDT
Astronomical Twilight 4:03 AM EDT 8:57 PM EDT
Moon 7:40 PM EDT (9/2) 8:10 AM EDT (9/2)
Length of Visible Light 14h 17m
Length of Day
13h 15m
Waning Gibbous, 95% of the Moon is Illuminated
Sep 2
Waning Gibbous
Sep 8
Last Quarter
Sep 15
New
Sep 22
First Quarter
Sep 29
Full

Hourly Weather History & Observations

Time (EDT) Temp. Windchill Dew Point Humidity Pressure Visibility Wind Dir Wind Speed Gust Speed Precip Events Conditions
12:54 AM 45.0 °F - 41.0 °F 86% 30.14 in 10.0 mi Calm Calm - N/A   Clear
1:54 AM 44.1 °F - 41.0 °F 89% 30.14 in 10.0 mi Calm Calm - N/A   Clear
2:54 AM 45.0 °F - 42.1 °F 90% 30.14 in 10.0 mi Calm Calm - N/A   Clear
3:54 AM 44.6 °F 43.1 °F 41.0 °F 87% 30.12 in 10.0 mi NNE 3.5 mph - N/A   Clear
4:54 AM 44.1 °F - 41.0 °F 89% 30.14 in 10.0 mi Calm Calm - N/A   Clear
5:54 AM 41.0 °F - 39.0 °F 93% 30.14 in 10.0 mi Calm Calm - N/A   Clear
6:54 AM 45.0 °F - 42.1 °F 90% 30.15 in 10.0 mi Calm Calm - N/A   Mostly Cloudy
7:54 AM 46.9 °F - 44.1 °F 90% 30.15 in 10.0 mi ENE 3.5 mph - N/A   Scattered Clouds
8:54 AM 52.0 °F - 46.0 °F 80% 30.14 in 10.0 mi Calm Calm - N/A   Mostly Cloudy
9:54 AM 57.0 °F - 46.9 °F 69% 30.14 in 10.0 mi Calm Calm - N/A   Scattered Clouds
10:54 AM 63.0 °F - 46.9 °F 56% 30.13 in 10.0 mi Calm Calm - N/A   Mostly Cloudy
11:54 AM 66.0 °F - 46.0 °F 48% 30.12 in 10.0 mi SSE 5.8 mph - N/A   Partly Cloudy
12:54 PM 66.0 °F - 48.0 °F 52% 30.12 in 10.0 mi SSE 5.8 mph - N/A   Partly Cloudy
1:54 PM 64.9 °F - 51.1 °F 61% 30.12 in 10.0 mi South 10.4 mph - N/A   Mostly Cloudy
2:54 PM 66.9 °F - 51.1 °F 57% 30.10 in 10.0 mi South 6.9 mph - N/A   Clear
3:54 PM 66.0 °F - 51.1 °F 59% 30.10 in 10.0 mi South 6.9 mph - N/A   Overcast
4:54 PM 64.9 °F - 48.9 °F 56% 30.11 in 10.0 mi SSE 3.5 mph - N/A   Overcast
5:54 PM 64.9 °F - 51.1 °F 61% 30.12 in 10.0 mi South 5.8 mph - N/A   Overcast
6:54 PM 62.1 °F - 51.1 °F 67% 30.13 in 10.0 mi South 3.5 mph - N/A   Overcast
7:54 PM 59.0 °F - 51.1 °F 75% 30.14 in 10.0 mi Calm Calm - N/A   Clear
8:54 PM 57.0 °F - 52.0 °F 83% 30.15 in 10.0 mi SSE 3.5 mph - N/A   Clear
9:54 PM 55.9 °F - 52.0 °F 87% 30.15 in 10.0 mi Calm Calm - N/A   Clear
10:54 PM 54.0 °F - 52.0 °F 93% 30.16 in 10.0 mi SW 3.5 mph - N/A   Clear
11:54 PM 51.8 °F - 50.0 °F 94% 30.15 in 10.0 mi Calm Calm - N/A   Clear